Location: Christchurch
(43.5330°S, 172.6330°E)
Time: 01:09:44
(UTC+12:00)

Cosmos 2333 Rocket - Pass Details

Date: 24 January 2019
Orbit: 837 x 865 km, 70.8° (Epoch: 21 April)

Event Time Altitude Azimuth Distance (km) Brightness Sun altitude
Exits shadow 23:35:08 41° 46° (NE) 1,256 2.6 -20.9°
Maximum altitude 23:36:08 44° 73° (ENE) 1,187 2.6 -21.0°
Drops below altitude 10° 23:41:39 10° 143° (SE) 2,534 4.9 -21.5°
Sets 23:44:13 0° 149° (SSE) 3,475 5.8 -21.7°
